Regional Weather Roundup
Issued by NWS

Home | Current Version | Previous Version | Graphics & Text | Print | Product List | Glossary On
Versions: 1 2 3 4 5 6 7 8 9 10 11 12 13 14 15 16 17 18 19 20 21 22 23 24 25 26 27 28 29 30 31 32 33 34 35 36 37 38 39 40 41 42 43 44 45 46 47 48 49 50
000
ASUS43 KFSD 240902
RWRSD

WEATHER ROUNDUP FOR SOUTH DAKOTA
NATIONAL WEATHER SERVICE SIOUX FALLS SD
400 AM CDT TUE APR 24 2018

NOTE: "FAIR" INDICATES FEW OR NO CLOUDS BELOW 12,000 FEET WITH NO
SIGNIFICANT WEATHER AND/OR OBSTRUCTIONS TO VISIBILITY.


SDZ001>005-009-010-012>017-241000-
NORTHWEST AND NORTH CENTRAL SOUTH DAKOTA

CITY           SKY/WX    TMP DP  RH WIND       PRES   REMARKS
BUFFALO          N/A     35 N/A N/A N13       30.34R WCI  26
FAITH            N/A     34  34 100 N30G38    30.27R WCI  20
MOBRIDGE       RAIN      43  40  89 N23G32    30.21R
$$

SDZ012>016-024>037-041>051-057-063-072>074-241000-
SOUTHWEST AND SOUTH CENTRAL SOUTH DAKOTA

CITY           SKY/WX    TMP DP  RH WIND       PRES   REMARKS
RAPID CTY ARPT LGT SNOW  34  32  92 NW30G40   30.32R FOG     WCI  20
PIERRE         CLOUDY    49  46  90 S6        30.07F
CUSTER         CLOUDY    31  25  78 N12G24    30.27R WCI  22
PHILIP         CLOUDY    39  38  96 NW26G38   30.19R
PINE RIDGE     CLOUDY    39  35  86 N16G28    30.30R
SPEARFISH      MIX PCPN  32  32 100 NW15G22   30.39R WCI  22
WINNER         PTSUNNY   47  41  80 W15G25    30.15F
$$

SDZ004>011-016>023-039-040-241000-
NORTHEAST SOUTH DAKOTA

CITY           SKY/WX    TMP DP  RH WIND       PRES   REMARKS
ABERDEEN       LGT RAIN  48  45  89 N15       30.22R
WATERTOWN      CLOUDY    48  41  76 N8        30.16R
BROOKINGS      CLOUDY    49  40  71 SE3       30.14F
SISSETON         N/A     49  42  77 NW12      30.18S
$$

SDZ017-020-022-023-036>040-048>070-241000-
SOUTHEAST SOUTH DAKOTA

CITY           SKY/WX    TMP DP  RH WIND       PRES   REMARKS
SIOUX FALLS    CLOUDY    47  41  80 NE6       30.13F
HURON          CLOUDY    53  44  71 S7        30.13F
CHAMBERLAIN    CLOUDY    51  51 100 W10       30.14R
MITCHELL       CLOUDY    50  44  80 NW5       30.14R
YANKTON        CLOUDY    49  41  74 E7        30.11F
$$

ABBREVIATIONS USED IN REMARKS
   TC - TEMPERATURE IN CELSIUS
  WCI - WIND CHILL INDEX
   HX - HEAT INDEX
  VSB - VISIBILITY





USA.gov is the U.S. government's official web portal to all federal, state and local government web resources and services.